Location: Briis
(48.6240°N, 2.1211°E)
Time: 03:48:03
(UTC+00:00)

USA 267 - Pass Details

Date: 25 September 2020
Orbit: 1101 x 1106 km, 123.0° (Epoch: 22 September)

Event Time Altitude Azimuth Distance (km) Brightness Sun altitude
Rises 03:24:46 0° 55° (NE) 3,925 7.6 -22.9°
Reaches altitude 10° 03:27:15 10° 56° (ENE) 2,966 6.6 -22.5°
Maximum altitude 03:33:49 79° 144° (SE) 1,125 3.2 -21.5°
Enters shadow 03:36:57 34° 226° (SW) 1,729 3.8 -21.0°
